This is the latest recevied weather packets stored in our database for station/object KJ6APE. If no packets are shown the sender has not sent any weather packets the latest 10 day(s).
| Time | Temp. | Humidity | Pressure | Rain* | Wind** | Luminosity | Snow |
|---|---|---|---|---|---|---|---|
| 1777836973 | 17.78° C | 59% | 1013.3 hPa | 0 mm | - | 421 W/m² | - |
| 1777836668 | 17.22° C | 61% | 1013.2 hPa | 0 mm | - | 393 W/m² | - |
| 1777836364 | 17.22° C | 60% | 1013.2 hPa | 0 mm | - | 475 W/m² | - |
| 1777836060 | 17.22° C | 61% | 1013.2 hPa | 0 mm | - | 480 W/m² | - |
| 1777835757 | 18.33° C | 59% | 1013.2 hPa | 0 mm | - | 417 W/m² | - |
| 1777835454 | 18.33° C | 55% | 1013.2 hPa | 0 mm | - | 590 W/m² | - |
| 1777835151 | 18.33° C | 57% | 1013.3 hPa | 0 mm | - | 802 W/m² | - |
| 1777834848 | 17.78° C | 58% | 1013.3 hPa | 0 mm | - | 659 W/m² | - |
| 1777834544 | 17.78° C | 58% | 1013.4 hPa | 0 mm | - | 899 W/m² | - |
| 1777834244 | 17.22° C | 60% | 1013.3 hPa | 0 mm | - | 548 W/m² | - |
| 1777833940 | 17.22° C | 59% | 1013.4 hPa | 0 mm | - | 587 W/m² | - |
| 1777833637 | 17.22° C | 61% | 1013.4 hPa | 0 mm | - | 487 W/m² | - |
| 1777833334 | 16.67° C | 63% | 1013.4 hPa | 0 mm | - | 497 W/m² | - |
| 1777833031 | 16.11° C | 67% | 1013.2 hPa | 0 mm | - | 454 W/m² | - |
| 1777832729 | 16.11° C | 68% | 1013.6 hPa | 0 mm | - | 347 W/m² | - |
| 1777832427 | 16.11° C | 68% | 1013.3 hPa | 0 mm | - | 262 W/m² | - |
| 1777832124 | 16.67° C | 67% | 1013.4 hPa | 0 mm | - | 245 W/m² | - |
| 1777831820 | 16.67° C | 65% | 1013.3 hPa | 0 mm | - | 378 W/m² | - |
| 1777831518 | 16.11° C | 65% | 1013.2 hPa | 0 mm | - | 499 W/m² | - |
| 1777831215 | 15.56° C | 68% | 1013.2 hPa | 0 mm | - | 513 W/m² | - |
| 1777830912 | 15.56° C | 69% | 1013.2 hPa | 0 mm | - | 321 W/m² | - |
| 1777830609 | 15.56° C | 67% | 1013.3 hPa | 0 mm | - | 145 W/m² | - |
| 1777830306 | 16.11° C | 66% | 1013.4 hPa | 0 mm | - | 171 W/m² | - |
| 1777830002 | 16.11° C | 66% | 1013 hPa | 0 mm | - | 240 W/m² | - |
| 1777829697 | 16.11° C | 66% | 1013.1 hPa | 0 mm | - | 217 W/m² | - |
* Rain latest hour (hover to see other rain measurements)
** Current wind speed in m/s (hover to see current wind gust speed)